Wind_Speed
26 25 23 22 21 18 16 16 16 16 15 14 14 15 17 19 19 19 19 18 18 16 15 15 15 15 15 16 15 15 15 15 14 14 14 13 13 12 11 11 11 10 10 10 9 9 9 8 7 7 6 6 5 5 4 4 3 3 3 3 4 4 4
26 25 24 23 23 20 18 18 17 17 16 14 13 13 15 17 18 19 19 19 18 17 17 16 16 16 16 16 15 15 16 16 16 16 15 14 14 13 12 12 11 11 11 10 10 9 9 9 8 8 7 7 6 6 5 5 4 4 4 4 4 4 5
23 24 24 24 24 22 21 20 19 18 16 15 14 13 14 15 17 19 19 19 18 18 18 18 17 17 16 16 16 15 16 16 17 16 16 15 15 14 13 13 12 12 11 11 10 10 10 9 9 9 9 8 8 7 7 6 5 5 5 5 4 4 5
21 23 23 24 24 23 23 23 22 20 18 16 15 14 14 13 15 16 17 18 18 18 18 18 18 18 17 17 16 16 16 16 17 17 17 16 16 15 15 14 14 13 13 12 12 11 11 10 10 10 10 9 9 8 7 7 6 6 6 5 5 5 6
19 21 22 23 23 23 24 24 23 22 20 19 17 16 15 13 12 13 14 16 17 18 18 18 19 19 19 19 18 17 16 16 16 17 17 17 17 17 16 15 15 15 14 14 13 13 12 12 12 11 11 11 10 9 8 7 7 7 7 6 5 5 6
18 18 20 22 23 24 24 24 25 24 23 22 20 18 16 14 12 12 12 13 14 15 17 18 19 20 20 20 19 19 18 17 17 17 18 18 18 18 17 17 16 16 16 15 15 14 14 14 13 12 12 11 11 10 9 9 8 8 7 7 6 5 5
19 19 20 22 23 24 24 24 25 26 26 24 21 19 17 15 14 13 12 12 12 13 15 17 19 20 21 21 21 20 20 19 18 18 18 19 19 19 18 18 18 17 17 17 16 16 15 15 15 14 13 12 12 11 10 10 10 9 9 8 7 7 6
16 18 19 20 21 22 24 26 27 28 28 26 22 20 18 16 15 15 13 13 12 12 14 15 17 19 20 21 21 21 21 21 20 20 19 19 20 20 20 19 19 18 18 19 18 17 17 16 16 15 14 13 12 12 11 11 10 10 10 9 9 8 7
14 16 17 16 17 17 19 24 28 28 27 26 23 21 20 18 17 16 16 15 14 14 14 15 16 17 18 20 21 22 22 21 21 21 21 21 21 21 21 21 20 20 20 20 20 19 18 17 17 16 16 15 13 13 12 11 11 11 11 10 10 10 9
13 16 16 14 13 13 13 17 23 27 27 26 24 23 21 19 17 17 17 17 17 16 16 16 16 16 17 19 20 21 22 22 22 22 22 23 23 23 23 22 22 21 22 22 21 21 20 19 18 18 17 16 15 14 13 13 12 12 12 12 12 11 11
14 15 16 15 13 12 13 13 16 22 24 24 23 22 20 18 18 18 18 18 18 18 18 17 17 17 18 19 20 20 20 22 22 23 23 23 24 25 24 24 23 22 23 24 24 23 22 21 20 20 19 18 17 16 15 14 14 13 13 13 13 13 13
15 15 17 17 15 13 13 13 14 17 18 18 20 19 19 19 19 19 18 18 19 20 20 20 19 20 20 19 19 19 20 20 22 23 24 25 25 25 26 26 25 24 24 25 25 24 24 23 22 21 21 20 19 18 17 16 16 15 15 15 14 15 14
16 15 16 18 16 13 14 14 15 16 16 15 17 17 18 19 20 20 19 19 20 22 23 23 22 23 22 21 20 20 20 20 20 22 24 25 26 26 27 27 26 26 25 25 25 25 25 25 25 24 23 22 21 20 19 19 18 18 17 17 16 16 16
19 16 17 17 14 12 14 16 15 16 15 15 16 16 16 17 18 19 20 20 21 22 24 25 25 25 25 24 23 22 22 22 22 21 22 23 25 27 28 28 28 28 27 26 25 26 26 27 26 26 25 24 23 23 22 22 21 21 20 19 19 19 18
22 21 20 19 15 11 13 16 16 16 16 15 16 17 17 17 18 19 19 19 19 21 23 25 27 28 27 27 26 25 24 24 24 23 22 23 24 26 28 30 30 29 29 28 27 27 28 28 28 28 27 26 25 25 25 24 25 24 23 23 21 21 21
21 21 20 21 20 15 14 14 15 16 16 16 17 18 19 19 19 20 21 21 20 20 20 22 25 27 28 29 29 28 28 28 27 26 26 26 25 26 27 29 31 32 32 31 30 30 30 29 29 29 29 28 28 28 27 27 28 27 26 25 24 23 23
22 21 20 21 23 22 19 17 16 17 18 19 20 20 21 20 21 22 22 22 22 21 20 20 21 23 25 27 28 29 29 30 29 29 29 29 28 27 27 28 30 32 33 33 33 32 32 32 32 32 32 31 30 30 30 30 31 30 28 27 26 25 25
26 24 23 23 24 24 23 21 20 20 21 22 23 24 24 24 25 25 24 24 24 24 23 22 22 23 24 24 26 27 28 29 30 29 29 30 30 29 29 29 29 30 32 34 35 35 35 34 34 34 33 33 33 32 32 33 34 33 30 29 28 26 26
30 28 27 26 26 26 26 25 25 25 26 26 27 27 28 28 29 29 28 28 28 28 26 25 24 25 25 24 25 26 27 28 29 29 28 29 30 31 31 32 32 32 32 32 33 35 36 37 36 36 35 34 34 34 34 35 37 35 32 31 30 28 27
33 32 32 31 31 30 30 31 31 30 30 30 30 30 31 31 31 31 32 32 31 31 30 28 27 27 27 26 27 27 27 28 28 29 28 28 29 30 30 32 34 35 34 34 33 33 35 36 37 38 38 37 36 36 37 39 38 35 33 33 32 30 29
36 36 35 36 36 36 36 36 35 35 35 35 35 35 35 34 34 34 34 34 34 33 32 31 30 29 29 29 29 28 27 26 27 28 29 29 29 29 29 30 32 34 35 36 36 36 36 36 37 39 40 40 39 39 41 41 38 36 35 34 34 33 31
38 38 38 39 40 40 40 40 39 39 39 39 39 39 38 37 37 37 37 37 36 36 34 33 32 31 31 31 29 27 27 27 27 27 27 28 29 29 28 29 30 32 33 34 36 37 37 37 36 38 39 41 41 42 42 41 39 39 38 37 36 35 33
39 40 41 42 42 43 43 42 42 42 41 41 42 42 42 40 39 39 40 40 40 39 37 36 34 33 32 32 31 29 28 28 28 27 28 28 28 28 29 29 30 32 32 32 33 34 36 36 37 38 38 40 41 42 43 43 42 42 42 41 38 37 36
40 41 43 44 44 45 45 44 44 43 43 43 43 43 43 42 42 41 40 41 42 41 40 38 36 35 33 33 33 32 30 29 28 29 30 30 28 28 28 29 30 31 31 32 33 34 35 35 37 38 39 39 41 44 46 45 42 42 45 45 41 38 38
41 42 44 44 45 46 46 45 45 44 44 43 43 43 43 42 42 41 40 40 41 41 41 39 37 36 34 33 33 33 32 30 30 30 30 30 29 28 27 27 28 29 30 31 33 34 34 35 37 38 38 38 41 44 45 44 43 44 46 47 44 42 41
42 43 44 45 45 46 46 47 46 45 45 44 43 43 43 42 41 40 39 39 39 39 40 39 37 36 35 33 33 33 33 33 33 32 32 31 31 30 28 27 27 28 30 32 33 33 33 34 35 35 34 35 36 38 40 42 46 49 49 49 47 45 45
41 43 44 44 45 46 47 47 47 46 45 45 44 43 42 42 41 39 38 38 38 39 39 39 39 37 36 35 34 33 33 34 34 35 34 34 34 33 31 30 29 28 28 30 32 32 31 29 28 28 28 29 30 30 33 37 42 46 50 51 49 47 45
40 42 44 44 44 45 47 48 48 48 47 45 44 43 42 41 40 39 38 37 37 38 38 39 39 38 36 35 34 32 32 33 34 34 34 35 35 34 33 32 31 30 28 28 28 27 25 23 23 24 24 24 24 23 25 28 31 35 41 46 47 46 44
39 39 43 46 45 45 47 49 49 49 49 47 45 43 41 41 40 39 38 37 37 38 38 39 39 38 36 35 34 34 33 31 30 30 31 31 33 33 32 32 32 32 32 31 30 28 26 25 25 25 25 25 25 24 23 23 23 25 31 36 40 43 41
40 37 39 44 44 44 47 51 51 50 50 49 46 45 43 41 41 40 39 39 38 37 37 38 39 38 36 35 34 34 34 31 28 28 29 30 31 31 31 31 32 33 34 34 34 33 32 32 31 29 27 27 28 28 27 25 22 21 25 29 34 38 38
45 42 40 40 38 35 37 44 48 50 50 49 45 44 43 42 42 41 40 40 40 39 38 39 39 38 36 34 32 32 32 31 30 30 32 32 31 31 30 31 32 32 33 34 34 34 33 32 31 29 27 28 28 29 29 28 24 21 20 21 24 28 29
49 49 48 44 41 36 31 32 36 40 44 47 46 44 43 43 42 42 41 41 41 41 41 42 40 38 38 38 36 35 35 34 34 33 34 33 32 31 30 30 31 32 32 32 33 33 32 31 31 29 28 28 28 29 28 27 25 23 20 20 20 22 22
47 51 53 52 51 49 43 36 32 30 32 37 41 42 42 43 44 43 43 42 43 43 43 42 42 40 40 40 40 39 38 38 38 37 36 35 34 33 32 32 31 32 32 32 32 32 32 31 31 30 30 29 29 29 28 26 25 24 23 23 22 21 21
40 44 50 51 51 51 50 47 42 39 36 35 35 37 39 43 46 47 45 44 44 44 44 43 43 43 42 43 43 42 41 40 40 39 38 37 36 35 35 34 33 33 34 33 33 33 33 32 31 31 31 31 31 31 31 29 28 28 28 27 25 24 23
36 35 38 44 46 47 48 48 48 48 48 47 44 41 40 41 45 47 46 46 45 45 45 46 46 46 45 45 45 44 43 42 41 40 39 38 38 37 37 36 35 35 35 35 35 35 34 34 33 33 32 32 32 32 32 32 32 33 33 32 31 30 29
41 37 34 34 34 36 38 41 43 44 45 46 48 49 47 44 43 42 42 44 46 47 48 48 48 48 48 47 46 45 44 43 42 41 40 40 39 39 38 38 37 37 37 38 38 37 37 36 36 35 34 33 32 33 33 33 34 35 35 35 36 36 35
47 47 44 39 34 31 29 29 31 34 36 38 40 44 46 47 46 44 43 43 45 48 50 51 51 51 50 48 46 45 44 43 42 41 40 40 40 40 40 40 40 39 39 39 39 39 39 39 38 38 37 35 34 34 35 34 34 34 35 35 35 36 37
47 50 51 51 49 45 40 34 29 29 31 33 34 37 39 40 42 45 47 45 44 44 47 50 52 52 52 51 50 47 44 43 43 42 41 41 41 41 41 42 42 42 41 41 41 41 40 40 40 40 40 39 37 36 37 36 35 35 35 35 35 36 36
Wind_Direction
199 200 200 201 206 206 202 202 204 203 201 199 204 212 217 217 216 216 216 214 212 211 213 216 220 221 222 220 216 216 218 218 218 220 223 224 224 222 220 219 215 212 210 207 206 205 201 202 201 202 206 205 203 201 199 203 214 237 255 269 281 287 293
202 203 202 201 204 205 204 207 211 210 208 205 206 212 218 219 218 217 218 217 215 213 214 219 225 226 225 223 219 218 220 222 222 221 223 225 226 225 224 224 219 217 216 214 213 211 206 206 206 209 213 214 216 215 215 221 228 244 259 267 277 285 287
208 207 208 206 205 205 204 207 212 216 217 213 212 215 219 220 220 220 220 220 219 218 217 219 225 230 231 229 223 219 221 225 226 225 226 226 227 228 228 228 226 223 223 222 223 221 217 216 215 217 221 223 225 226 226 232 237 247 257 268 280 287 288
215 213 214 213 211 209 207 207 210 216 221 220 218 219 220 220 221 223 224 224 223 223 223 222 225 230 234 235 231 225 223 226 230 231 230 231 230 230 230 230 231 230 230 230 231 230 228 227 226 226 228 228 231 233 232 236 241 247 255 265 278 285 287
223 220 221 220 217 216 213 210 210 214 220 223 223 223 224 220 219 223 226 228 228 228 228 228 228 230 234 238 239 234 230 229 231 234 235 235 234 232 231 231 231 233 233 234 235 235 234 233 232 234 235 234 234 236 237 239 242 247 253 260 270 281 284
227 226 227 225 220 221 221 215 213 216 218 221 224 227 228 225 221 220 222 227 231 231 232 232 231 231 233 236 239 239 238 234 233 235 236 238 238 236 234 233 233 233 235 236 236 236 238 239 238 237 239 240 240 241 242 242 243 246 250 255 259 265 271
226 223 226 227 221 222 226 222 218 219 219 219 222 226 230 230 228 226 223 225 231 234 235 236 235 235 235 236 238 240 240 239 238 237 238 239 240 240 238 237 236 236 236 237 237 237 239 242 243 243 242 244 246 247 248 247 247 247 248 252 253 253 255
233 227 228 228 221 223 229 226 223 224 223 220 220 223 227 230 231 233 231 230 233 237 239 240 239 238 237 238 240 241 242 242 242 242 242 242 241 241 240 240 240 241 241 242 241 240 241 244 247 247 247 248 249 250 252 252 253 253 253 253 254 254 250
245 241 236 224 217 222 226 224 223 225 225 223 221 222 226 228 230 235 237 238 238 240 241 242 241 241 241 241 241 242 243 243 244 244 244 245 244 244 243 242 243 244 245 247 246 245 244 245 248 250 251 251 252 252 253 254 256 259 261 260 258 257 255
241 243 239 227 216 218 224 225 222 221 221 222 221 221 224 227 231 235 238 242 244 245 245 245 245 244 245 245 244 242 242 242 243 243 244 245 246 246 246 245 245 246 247 249 249 248 247 247 248 250 252 253 253 253 253 253 254 257 262 265 263 262 260
235 240 243 241 231 222 227 231 224 219 221 223 221 220 223 228 234 236 236 240 245 249 251 252 252 250 248 249 248 247 246 245 244 243 242 243 245 246 246 247 247 247 248 250 250 250 250 248 247 248 250 252 253 253 252 253 254 255 258 262 264 265 266
235 241 246 245 237 230 230 229 225 223 224 223 220 220 223 228 236 239 239 238 241 245 250 252 254 254 252 251 252 253 253 251 249 247 244 244 244 245 246 247 248 247 248 251 252 252 252 252 251 249 249 250 250 251 251 252 254 256 258 260 262 265 267
232 240 246 240 232 230 231 229 228 226 225 225 223 224 226 228 233 238 240 241 240 242 246 247 249 251 253 252 252 254 255 254 253 251 249 248 247 247 246 247 248 248 249 252 254 255 255 255 255 253 252 251 251 251 250 251 253 255 257 259 261 264 266
230 234 239 234 229 231 234 235 234 229 226 227 228 231 232 231 232 235 238 241 244 245 246 246 246 249 252 253 251 251 253 254 254 253 253 252 250 249 248 248 248 248 248 249 252 255 257 256 256 255 255 254 253 253 252 252 252 252 254 256 257 260 262
234 237 239 237 235 236 236 238 238 234 230 229 230 233 235 235 238 240 241 245 247 249 249 248 248 248 250 253 253 253 253 254 254 253 253 253 252 252 250 248 248 248 248 248 248 251 255 257 258 257 256 255 254 254 254 253 253 252 252 254 255 256 258
234 238 240 239 239 238 232 230 231 232 235 234 234 236 238 240 244 246 248 252 254 255 254 253 251 249 249 250 252 253 254 254 255 254 254 253 252 252 252 251 249 247 248 249 248 249 251 255 258 258 257 256 255 254 254 254 254 253 252 253 254 255 257
230 234 237 237 239 241 240 237 235 236 237 238 239 241 242 245 249 250 253 257 262 263 260 258 256 252 250 249 250 251 253 254 255 255 255 255 254 253 253 254 252 250 249 249 249 249 249 251 254 257 259 259 258 257 256 255 255 254 253 253 254 255 258
228 233 238 239 239 241 242 242 241 238 237 239 241 244 246 248 250 253 256 260 263 265 263 260 258 256 254 252 250 251 252 254 256 256 255 255 254 254 254 254 255 254 252 251 250 250 250 250 252 254 258 261 262 261 260 258 257 255 254 254 254 254 256
230 233 237 239 240 240 241 241 241 240 240 241 243 245 247 249 251 253 256 258 260 263 264 262 261 261 260 257 255 255 254 254 256 258 257 255 254 255 256 255 255 254 254 253 252 252 253 253 254 254 255 257 259 261 262 261 259 258 257 257 256 255 256
233 235 237 239 240 240 240 240 241 242 243 244 245 246 247 248 250 252 254 256 258 261 263 263 262 262 262 261 259 257 255 255 258 259 259 257 256 256 257 257 256 255 255 255 255 256 256 255 255 256 255 255 256 258 260 261 261 262 261 260 259 256 255
235 236 238 240 241 242 243 244 244 245 245 246 247 248 249 249 251 252 253 254 256 259 262 263 262 262 261 260 259 258 257 258 260 261 261 260 259 258 259 259 259 258 258 259 259 258 258 257 256 256 255 254 254 255 257 260 264 266 266 264 262 260 257
236 237 239 240 242 243 245 246 247 247 248 249 249 250 251 252 253 253 254 254 255 257 260 261 262 262 261 261 260 260 261 261 261 261 261 261 260 260 260 260 260 260 260 262 261 258 257 258 258 258 258 256 254 253 255 258 260 262 263 263 262 261 260
237 238 239 240 241 243 245 246 247 248 249 251 252 252 252 253 254 255 254 255 256 257 259 261 261 262 262 262 262 261 261 260 260 259 260 261 262 262 261 259 259 259 259 261 260 257 256 256 255 258 263 261 256 253 252 254 254 253 254 255 256 258 260
241 241 241 240 241 243 245 246 247 248 250 251 252 253 253 254 255 256 256 255 255 257 258 260 260 260 260 260 260 260 259 258 259 259 261 262 262 262 261 260 259 259 260 260 260 258 259 259 258 259 261 261 258 254 252 251 251 251 250 250 250 252 255
245 245 243 243 243 244 245 246 246 247 248 250 251 252 253 253 254 255 255 255 255 256 257 258 258 258 258 257 257 256 256 255 255 256 259 261 261 260 262 263 262 261 260 260 259 258 258 261 263 262 260 259 259 259 257 252 250 249 249 249 248 249 251
250 249 248 247 247 246 246 246 246 247 247 248 250 251 252 253 253 254 254 253 253 254 254 255 255 256 257 257 256 255 254 254 253 253 254 257 259 259 262 265 266 263 260 257 258 258 257 257 260 262 260 259 260 261 260 256 254 254 252 250 249 248 249
251 252 253 252 251 250 249 248 247 247 247 247 248 249 251 252 253 252 252 252 251 251 251 252 253 254 255 255 256 255 254 254 254 254 253 255 257 258 259 261 263 264 261 256 254 255 254 255 259 260 258 259 259 260 260 260 259 258 256 253 251 249 250
247 247 249 252 251 249 249 250 249 247 247 247 247 248 248 250 251 251 251 250 249 248 248 249 250 251 251 252 253 254 254 254 255 255 254 253 254 256 256 256 258 260 259 253 248 246 246 250 258 260 258 260 264 268 269 267 265 261 256 253 252 251 251
242 241 243 248 250 250 251 252 252 249 247 246 246 246 246 246 247 248 248 247 247 246 246 247 248 248 249 249 249 250 252 253 255 257 256 253 252 252 253 252 253 255 256 253 250 249 249 252 258 261 263 265 269 274 278 277 276 270 263 259 255 252 252
239 238 237 238 242 247 250 251 251 249 246 243 242 242 243 244 244 244 244 244 243 242 243 244 245 245 246 247 248 249 250 250 251 253 254 253 251 251 251 250 250 252 255 256 256 257 258 259 261 263 264 266 270 274 277 279 280 275 270 265 257 251 253
241 242 240 236 236 244 249 248 247 247 245 242 240 240 241 241 242 242 241 241 239 238 237 239 240 241 241 243 245 247 248 248 248 248 250 251 251 251 252 251 251 252 254 257 259 261 261 261 262 262 262 264 268 270 271 272 272 271 270 265 255 248 251
244 245 246 246 246 250 253 248 245 245 244 240 237 237 239 241 241 241 239 239 239 238 237 237 239 241 241 242 244 246 247 247 247 248 250 252 252 253 253 253 254 256 257 259 262 264 264 263 262 261 260 261 263 265 267 268 268 266 263 258 255 256 259
247 247 249 252 254 256 257 252 245 244 246 242 236 234 237 240 241 240 237 236 238 239 238 238 239 241 242 243 244 246 248 248 248 249 252 254 254 253 253 252 253 256 258 260 262 264 265 265 263 261 259 257 258 260 262 264 265 264 260 255 255 260 265
249 251 252 254 255 256 256 254 249 247 252 253 248 244 243 242 241 239 236 235 237 239 240 241 241 243 244 244 245 246 248 249 249 250 251 252 252 252 252 251 252 253 255 258 259 261 263 264 263 261 259 258 257 257 258 257 258 258 259 258 256 255 258
248 252 254 254 255 256 256 256 255 254 257 259 258 255 250 245 241 238 234 234 237 239 241 242 243 244 245 246 246 247 248 249 248 248 248 249 249 249 250 251 251 252 253 255 256 257 259 260 260 260 259 257 256 257 257 256 255 255 255 255 255 255 255
244 245 248 248 249 252 253 254 255 257 258 258 257 256 254 251 246 240 236 236 238 240 241 242 244 245 246 246 247 248 249 249 248 247 246 246 246 247 248 250 251 252 253 254 255 256 256 257 258 258 257 255 254 254 255 255 256 257 256 254 254 256 257
245 245 247 245 243 244 246 248 251 254 257 257 256 254 253 252 250 246 243 242 243 243 243 243 245 246 247 248 248 248 247 247 246 246 245 244 245 246 248 249 251 252 253 254 255 256 256 257 257 258 257 255 253 253 253 252 253 255 257 258 257 258 259
250 249 249 250 251 251 249 248 248 248 250 253 256 256 254 252 250 248 247 246 247 247 246 245 245 245 246 247 248 247 246 245 244 243 243 244 245 246 248 250 251 252 253 254 254 255 256 258 259 259 260 258 256 255 255 254 253 253 255 258 260 261 262
Height
5917 5919 5921 5923 5924 5926 5927 5928 5928 5929 5930 5931 5932 5934 5935 5936 5938 5939 5941 5942 5943 5945 5946 5946 5948 5949 5950 5951 5952 5953 5954 5955 5955 5956 5957 5958 5959 5960 5961 5961 5962 5963 5963 5964 5964 5965 5966 5966 5967 5968 5968 5969 5970 5970 5970 5971 5971 5971 5971 5971 5971 5971 5971
5915 5917 5919 5921 5923 5924 5926 5926 5927 5928 5930 5931 5932 5933 5934 5935 5937 5938 5940 5941 5942 5944 5945 5946 5947 5948 5950 5951 5952 5953 5954 5955 5955 5956 5957 5958 5958 5959 5960 5961 5962 5963 5963 5964 5965 5965 5965 5966 5967 5967 5968 5969 5969 5970 5970 5970 5971 5971 5970 5971 5971 5971 5971
5914 5916 5918 5920 5921 5923 5924 5925 5926 5927 5929 5930 5931 5932 5933 5934 5935 5937 5938 5940 5941 5943 5944 5945 5946 5948 5949 5950 5951 5952 5954 5954 5955 5956 5957 5957 5958 5959 5960 5961 5962 5962 5963 5964 5965 5965 5965 5966 5966 5967 5968 5969 5969 5970 5970 5970 5970 5970 5970 5970 5970 5970 5971
5913 5915 5916 5918 5920 5921 5922 5923 5925 5926 5928 5929 5930 5931 5932 5933 5935 5936 5938 5939 5940 5942 5943 5945 5946 5947 5949 5950 5951 5952 5953 5954 5955 5956 5957 5957 5958 5959 5959 5960 5961 5962 5963 5963 5964 5965 5965 5966 5966 5967 5967 5968 5969 5969 5969 5970 5970 5970 5970 5970 5970 5971 5970
5911 5913 5915 5917 5918 5919 5921 5922 5923 5925 5927 5928 5929 5930 5931 5933 5934 5935 5937 5938 5940 5941 5942 5944 5945 5947 5948 5949 5950 5952 5953 5954 5955 5956 5956 5957 5958 5958 5959 5960 5960 5961 5962 5963 5964 5964 5965 5965 5966 5966 5967 5967 5968 5968 5969 5969 5969 5969 5970 5970 5971 5971 5970
5910 5912 5914 5915 5917 5918 5919 5920 5922 5924 5925 5926 5927 5929 5930 5932 5933 5934 5936 5937 5938 5940 5941 5943 5944 5945 5947 5948 5949 5950 5952 5953 5954 5955 5956 5956 5957 5958 5958 5959 5960 5960 5961 5962 5962 5963 5964 5965 5965 5966 5966 5967 5967 5968 5968 5969 5969 5969 5969 5970 5970 5970 5970
5909 5910 5912 5912 5915 5917 5918 5919 5920 5922 5923 5925 5926 5928 5929 5931 5932 5933 5935 5936 5937 5938 5940 5941 5942 5944 5945 5946 5948 5949 5950 5951 5953 5954 5954 5955 5956 5957 5957 5958 5959 5959 5960 5960 5961 5962 5963 5964 5964 5965 5965 5966 5967 5967 5968 5968 5968 5969 5969 5969 5969 5970 5970
5907 5909 5910 5911 5912 5914 5916 5917 5919 5920 5922 5924 5925 5927 5928 5930 5931 5932 5933 5934 5936 5937 5938 5939 5940 5942 5943 5945 5946 5947 5949 5950 5951 5952 5953 5954 5954 5955 5956 5957 5957 5958 5959 5959 5960 5961 5962 5963 5963 5964 5965 5965 5966 5966 5967 5968 5968 5968 5969 5969 5969 5969 5970
5902 5904 5906 5909 5910 5911 5913 5914 5916 5918 5920 5922 5924 5926 5927 5929 5930 5931 5931 5933 5934 5936 5937 5938 5939 5940 5941 5943 5944 5945 5947 5948 5949 5951 5952 5952 5953 5954 5954 5955 5956 5957 5958 5958 5959 5960 5961 5961 5962 5963 5964 5964 5965 5965 5966 5967 5967 5968 5968 5968 5969 5969 5969
5900 5901 5903 5906 5909 5910 5911 5912 5914 5916 5918 5920 5922 5923 5925 5927 5929 5930 5930 5931 5932 5934 5935 5936 5937 5939 5940 5941 5942 5943 5944 5945 5947 5948 5950 5950 5951 5952 5952 5953 5955 5956 5956 5957 5957 5958 5959 5960 5961 5962 5963 5963 5964 5964 5965 5965 5966 5966 5967 5967 5968 5968 5969
5899 5900 5901 5903 5906 5908 5910 5911 5913 5914 5915 5917 5919 5921 5923 5926 5927 5928 5929 5930 5931 5932 5934 5935 5936 5937 5938 5939 5940 5941 5942 5943 5944 5946 5947 5948 5949 5949 5950 5951 5953 5954 5955 5955 5956 5956 5957 5958 5959 5960 5961 5962 5962 5963 5963 5963 5964 5965 5965 5966 5966 5967 5968
5898 5900 5900 5902 5904 5906 5907 5909 5911 5913 5914 5916 5918 5919 5921 5923 5925 5926 5927 5928 5929 5930 5932 5933 5934 5934 5935 5937 5938 5939 5940 5941 5942 5943 5944 5946 5946 5947 5948 5949 5950 5952 5953 5954 5954 5955 5955 5956 5957 5958 5959 5959 5960 5961 5961 5962 5962 5963 5964 5964 5965 5965 5966
5898 5900 5901 5902 5903 5904 5906 5907 5908 5910 5913 5914 5916 5917 5918 5920 5922 5923 5924 5925 5927 5928 5929 5930 5931 5932 5933 5934 5936 5937 5938 5939 5940 5941 5942 5943 5944 5945 5946 5947 5948 5949 5950 5951 5952 5953 5953 5954 5955 5955 5956 5957 5958 5959 5959 5960 5960 5961 5962 5962 5963 5964 5964
5897 5899 5900 5900 5901 5903 5904 5905 5906 5908 5910 5912 5913 5914 5915 5917 5919 5920 5921 5922 5924 5925 5926 5928 5929 5930 5931 5932 5933 5935 5935 5936 5937 5938 5939 5940 5941 5942 5943 5944 5945 5946 5947 5948 5949 5950 5951 5951 5952 5953 5954 5955 5956 5957 5957 5958 5958 5959 5959 5960 5961 5962 5962
5893 5895 5896 5896 5899 5902 5903 5904 5905 5906 5907 5909 5910 5912 5913 5914 5916 5917 5918 5919 5920 5922 5923 5925 5926 5928 5929 5930 5931 5932 5933 5934 5935 5936 5937 5937 5938 5939 5940 5941 5942 5943 5944 5945 5946 5947 5947 5948 5949 5950 5951 5952 5953 5954 5955 5955 5956 5956 5957 5958 5959 5959 5960
5891 5892 5893 5894 5896 5899 5902 5903 5904 5904 5905 5906 5908 5909 5911 5912 5913 5914 5915 5916 5918 5919 5921 5923 5924 5925 5927 5927 5928 5929 5930 5931 5932 5933 5934 5934 5935 5936 5937 5938 5939 5940 5941 5942 5943 5944 5944 5945 5946 5947 5948 5950 5950 5951 5952 5952 5952 5953 5954 5955 5956 5957 5957
5890 5891 5892 5893 5894 5895 5897 5899 5901 5901 5902 5903 5905 5906 5908 5909 5910 5912 5913 5914 5915 5917 5919 5921 5921 5922 5923 5924 5925 5926 5927 5928 5929 5930 5931 5931 5933 5933 5934 5935 5936 5937 5938 5939 5940 5941 5942 5942 5943 5944 5945 5947 5948 5948 5949 5949 5948 5949 5951 5952 5953 5954 5954
5888 5890 5891 5892 5893 5893 5895 5896 5898 5899 5900 5901 5902 5904 5906 5907 5908 5909 5911 5912 5913 5914 5916 5917 5918 5919 5919 5921 5922 5923 5924 5924 5925 5926 5928 5928 5930 5930 5931 5932 5933 5934 5935 5935 5936 5937 5938 5939 5940 5940 5942 5943 5944 5945 5946 5946 5945 5946 5948 5948 5950 5951 5951
5886 5888 5889 5890 5891 5892 5893 5895 5896 5897 5898 5899 5901 5902 5903 5905 5906 5907 5909 5910 5910 5911 5913 5914 5915 5916 5917 5918 5919 5920 5920 5921 5922 5923 5924 5925 5926 5927 5928 5929 5930 5931 5932 5932 5933 5934 5935 5936 5937 5937 5938 5939 5940 5941 5942 5941 5941 5943 5945 5945 5946 5947 5948
5883 5885 5886 5887 5888 5890 5891 5892 5893 5895 5896 5897 5899 5900 5901 5902 5904 5905 5906 5906 5907 5908 5909 5911 5913 5914 5914 5915 5916 5916 5917 5918 5918 5919 5920 5921 5922 5923 5924 5925 5926 5927 5928 5929 5930 5931 5932 5933 5934 5935 5935 5935 5937 5938 5937 5936 5937 5940 5942 5942 5942 5943 5944
5879 5881 5882 5884 5885 5886 5888 5889 5891 5892 5893 5895 5896 5897 5898 5900 5901 5902 5903 5903 5904 5905 5906 5907 5909 5910 5911 5911 5912 5913 5914 5914 5915 5915 5916 5917 5918 5919 5920 5921 5922 5923 5924 5925 5927 5927 5928 5929 5930 5930 5930 5931 5932 5933 5932 5932 5935 5938 5939 5939 5939 5939 5941
5875 5876 5878 5879 5880 5882 5884 5885 5887 5888 5890 5891 5892 5894 5895 5897 5898 5899 5899 5900 5901 5902 5903 5904 5905 5906 5907 5907 5908 5910 5911 5911 5911 5912 5913 5913 5914 5916 5917 5918 5918 5919 5920 5921 5921 5922 5923 5924 5924 5924 5925 5927 5928 5927 5927 5929 5932 5934 5934 5934 5934 5935 5936
5870 5872 5873 5874 5876 5877 5879 5880 5882 5884 5886 5887 5888 5890 5892 5893 5894 5895 5896 5896 5897 5898 5899 5900 5901 5902 5903 5903 5904 5905 5907 5907 5908 5909 5909 5910 5911 5912 5913 5913 5914 5914 5915 5916 5917 5917 5918 5919 5920 5920 5921 5922 5923 5922 5921 5922 5925 5927 5928 5928 5929 5930 5932
5866 5867 5868 5870 5872 5873 5874 5875 5877 5879 5881 5882 5884 5886 5887 5889 5890 5891 5892 5892 5893 5894 5895 5896 5897 5898 5899 5900 5900 5901 5902 5903 5904 5905 5905 5906 5907 5908 5908 5909 5910 5911 5911 5912 5912 5913 5913 5915 5916 5916 5917 5917 5917 5916 5916 5917 5919 5920 5920 5921 5924 5926 5926
5860 5862 5863 5865 5867 5868 5869 5870 5872 5873 5875 5877 5879 5880 5882 5884 5885 5886 5887 5888 5889 5890 5891 5892 5893 5894 5895 5896 5896 5897 5898 5899 5900 5901 5902 5902 5903 5904 5905 5906 5907 5908 5908 5908 5909 5909 5910 5911 5912 5912 5912 5912 5912 5911 5912 5913 5913 5912 5912 5915 5918 5920 5921
5855 5856 5858 5860 5861 5862 5864 5865 5866 5868 5870 5871 5873 5875 5877 5879 5880 5882 5883 5884 5885 5886 5886 5887 5888 5889 5890 5891 5892 5893 5894 5895 5896 5897 5898 5899 5900 5901 5902 5902 5903 5904 5904 5904 5905 5905 5906 5907 5907 5907 5908 5908 5907 5907 5908 5907 5906 5906 5907 5909 5912 5915 5916
5850 5851 5853 5854 5856 5857 5858 5860 5861 5862 5864 5866 5868 5870 5871 5873 5875 5876 5878 5879 5880 5881 5882 5883 5884 5885 5886 5887 5887 5888 5889 5890 5891 5892 5894 5895 5896 5897 5898 5899 5899 5900 5900 5901 5901 5901 5903 5904 5904 5904 5904 5903 5902 5903 5903 5903 5902 5901 5902 5904 5906 5909 5912
5845 5847 5848 5849 5850 5852 5853 5854 5855 5857 5858 5860 5862 5864 5866 5868 5869 5871 5872 5874 5875 5877 5878 5879 5879 5880 5881 5882 5883 5884 5885 5886 5887 5888 5889 5891 5891 5893 5894 5895 5895 5896 5897 5898 5898 5898 5900 5901 5900 5900 5901 5900 5899 5899 5899 5898 5897 5896 5897 5899 5901 5904 5907
5840 5842 5843 5844 5846 5847 5848 5848 5849 5851 5852 5854 5856 5858 5860 5862 5863 5865 5867 5868 5870 5872 5873 5874 5875 5876 5877 5878 5879 5880 5881 5882 5883 5884 5885 5886 5887 5888 5889 5890 5891 5892 5892 5894 5895 5895 5896 5896 5896 5897 5899 5898 5897 5896 5896 5895 5894 5893 5893 5894 5896 5899 5902
5835 5835 5836 5838 5840 5841 5842 5843 5844 5844 5846 5847 5849 5851 5853 5855 5857 5859 5861 5862 5864 5866 5868 5869 5870 5871 5872 5874 5875 5876 5877 5878 5879 5880 5881 5882 5883 5884 5885 5886 5887 5888 5888 5889 5890 5891 5892 5892 5892 5893 5894 5894 5893 5893 5893 5894 5894 5893 5892 5892 5892 5895 5897
5829 5830 5831 5832 5833 5834 5835 5836 5838 5839 5840 5841 5843 5845 5847 5849 5851 5853 5855 5856 5858 5861 5863 5864 5865 5866 5868 5869 5870 5872 5873 5874 5875 5876 5877 5878 5878 5879 5880 5881 5882 5883 5884 5884 5885 5886 5887 5888 5888 5889 5890 5890 5890 5890 5890 5891 5892 5892 5891 5890 5889 5891 5894
5825 5826 5827 5828 5828 5828 5830 5831 5833 5834 5835 5836 5837 5839 5841 5844 5846 5847 5849 5851 5853 5855 5857 5859 5860 5862 5863 5864 5865 5867 5868 5869 5870 5871 5872 5873 5874 5875 5876 5877 5878 5878 5879 5880 5880 5881 5882 5883 5884 5885 5886 5886 5886 5886 5886 5887 5888 5888 5888 5888 5888 5889 5890
5820 5821 5822 5822 5823 5823 5825 5827 5828 5828 5829 5831 5832 5833 5835 5837 5840 5841 5844 5846 5848 5850 5852 5853 5855 5857 5858 5859 5860 5862 5863 5864 5865 5866 5867 5868 5869 5870 5871 5873 5873 5874 5875 5875 5876 5876 5877 5878 5879 5881 5881 5882 5882 5882 5882 5883 5884 5884 5884 5886 5886 5886 5886
5814 5816 5816 5817 5818 5818 5819 5821 5823 5823 5824 5825 5827 5829 5830 5832 5834 5835 5837 5840 5842 5844 5846 5848 5849 5851 5853 5854 5855 5856 5857 5859 5860 5861 5862 5863 5864 5865 5867 5868 5869 5870 5870 5871 5872 5872 5873 5874 5875 5876 5877 5877 5878 5878 5879 5880 5881 5881 5881 5883 5883 5883 5884
5810 5811 5811 5811 5812 5813 5814 5815 5817 5818 5818 5819 5821 5823 5825 5827 5828 5829 5831 5833 5836 5838 5840 5842 5844 5845 5847 5848 5849 5851 5852 5853 5854 5856 5857 5858 5859 5860 5861 5863 5864 5865 5866 5867 5868 5868 5869 5870 5870 5871 5872 5873 5874 5874 5875 5876 5877 5877 5878 5879 5879 5880 5880
5805 5806 5807 5807 5807 5808 5809 5810 5811 5811 5812 5814 5815 5817 5819 5821 5822 5824 5825 5828 5830 5832 5834 5836 5838 5839 5841 5842 5844 5845 5846 5847 5848 5850 5851 5853 5854 5855 5856 5857 5859 5860 5861 5862 5863 5864 5865 5866 5866 5866 5867 5869 5869 5869 5870 5871 5872 5872 5873 5874 5875 5875 5876
5800 5801 5802 5803 5803 5804 5805 5806 5806 5807 5807 5808 5809 5811 5812 5814 5816 5818 5820 5822 5824 5826 5828 5830 5831 5833 5834 5836 5837 5838 5840 5841 5842 5844 5845 5847 5848 5849 5851 5852 5853 5854 5855 5856 5858 5859 5860 5861 5862 5862 5863 5864 5865 5865 5866 5867 5867 5868 5868 5869 5870 5870 5871
5794 5795 5796 5797 5798 5799 5800 5801 5802 5803 5803 5804 5804 5805 5806 5808 5810 5811 5814 5816 5818 5819 5821 5823 5825 5826 5828 5830 5831 5832 5834 5835 5836 5838 5839 5841 5842 5844 5845 5846 5847 5848 5850 5851 5852 5853 5854 5855 5857 5857 5858 5860 5861 5861 5861 5862 5863 5863 5863 5864 5864 5865 5866